sat.trackr.live / text

‹ back to catalog

ONEWEB-0720

NORAD 55835 · 2023-029AR

PAYLOAD ACTIVE UNKNOWN

§ Identity

Operator
Country
UK
Launch date
2023-03-09
Launch site
AFETR
Launch vehicle
Mass (kg)
RCS (m²)

Purposes: comms

External: N2YO · Heavens-Above · Gunter

§ Orbital elements

Epoch: 2026-05-25T03:37:29.335008Z

Period
109.11 min
Inclination
87.9150°
Eccentricity
0.0001555
Mean motion
13.19726460 rev/d
Perigee alt
1,184.6 km
Apogee alt
1,186.9 km
Semi-major
7,563.9 km
B*
8.6121e-5
RAAN
309.5703°
Arg perigee
87.3891°
Mean anomaly
272.7420°
Rev number
15,580

§ Raw data

ONEWEB-07201 55835U 23029AR  26145.15103397  .00000047  00000+0  86121-4 0  99912 55835  87.9150 309.5703 0001555  87.3891 272.7420 13.19726460155809

JSON: /api/v1/satellites/55835 · /tle

For live sub-satellite position, see the globe view (requires WebGL).

§ Visibility from observer

Set your observer location to see the next 7 days of passes ≥ 10°. The values pass through the URL so the page stays shareable.

No JS? Fill the form by hand. The geolocation button needs JavaScript.